Location: Ay?beleni
(36.6500°N, 30.3000°E)
Time: 13:51:23
(UTC+00:00)

Cosmos 1461 - Visible Passes

Search period start: 06 August 2020 00:00
Search period end: 16 August 2020 00:00
Orbit: 503 x 663 km, 65.0° (Epoch: 05 August)

Date Brightness Start Highest point End Pass type
(mag) Time Alt. Az. Time Alt. Az. Time Alt. Az.
06 Aug 4.5 01:41:17 20° W 01:42:46 23° NW 01:46:23 10° N visible
07 Aug 4.3 00:10:40 38° ENE 00:10:40 38° ENE 00:13:37 10° NE visible
07 Aug 5.0 01:47:03 13° WNW 01:48:46 15° NW 01:51:29 10° N visible
08 Aug 4.1 00:16:24 42° NNE 00:16:24 42° NNE 00:19:27 10° NNE visible
08 Aug 5.5 01:54:21 10° NW 01:54:52 10° NW 01:55:22 10° NW visible
09 Aug 4.3 00:22:05 35° N 00:22:05 35° N 00:25:07 10° NNE visible
10 Aug 4.7 00:27:44 26° NNW 00:27:44 26° NNW 00:30:35 10° N visible
10 Aug 6.0 22:56:59 13° NE 22:56:59 13° NE 22:57:28 10° NE visible
11 Aug 5.1 00:33:21 18° NW 00:33:21 18° NW 00:35:51 10° N visible
11 Aug 5.8 23:02:34 15° NE 23:02:34 15° NE 23:03:24 10° NNE visible
12 Aug 5.5 00:38:56 13° NW 00:38:56 13° NW 00:40:40 10° NNW visible
12 Aug 5.8 23:08:07 16° NNE 23:08:07 16° NNE 23:09:09 10° NNE visible
13 Aug 5.8 23:13:38 16° N 23:13:38 16° N 23:14:43 10° NNE visible
14 Aug 5.9 23:19:07 15° N 23:19:07 15° N 23:20:07 10° N visible
15 Aug 6.0 23:24:34 12° NNW 23:24:34 12° NNW 23:25:12 10° N visible
